Location: Santa Cristina
(46.5667°N, 11.7167°E)
Time: 07:40:43
(UTC+00:00)

Meteor 2-4 Rocket - Pass Details

Date: 21 April 2021
Orbit: 799 x 909 km, 81.2° (Epoch: 05 May)

Event Time Altitude Azimuth Distance (km) Brightness Sun altitude
Exits shadow 00:56:23 42° 134° (SE) 1,265 4.4 -27.0°
Maximum altitude 00:57:45 51° 94° (E) 1,133 4.4 -26.9°
Drops below altitude 10° 01:03:26 10° 20° (NNE) 2,582 7.2 -26.4°
Sets 01:05:56 0° 16° (NNE) 3,515 8.1 -26.2°
